Location: Gleizolles
(44.4833°N, 6.7667°E)
Time: 00:51:19
(UTC+00:00)

Vanguard 2 Rocket - Pass Details

Date: 21 June 2024
Orbit: 555 x 3302 km, 32.9° (Epoch: 24 July)

Event Time Altitude Azimuth Distance (km) Brightness Sun altitude
Rises 01:23:39 0° 221° (SW) 6,814 - -17.7°
Reaches altitude 10° 01:28:22 10° 215° (SW) 6,015 - -17.3°
Exits shadow 01:32:51 20° 206° (SSW) 5,328 10.1 -16.9°
Maximum altitude 01:45:50 41° 154° (SSE) 4,176 9.9 -15.8°
Drops below altitude 10° 02:01:39 10° 93° (E) 5,510 11.3 -14.2°
Sets 02:05:41 0° 86° (E) 6,220 11.8 -13.8°
